Time,TemperatureF,DewpointF,PressureIn,WindDirection,WindDirectionDegrees,WindSpeedMPH,WindSpeedGustMPH,Humidity,HourlyPrecipIn,Conditions,Clouds,dailyrainin,SoftwareType,DateUTC
2013-03-22 00:03:00,56.0,45.0,29.92,West,261,0.0,-999.0,66,-99.99,,,-99.99,,2013-03-22 04:03:00,
2013-03-22 00:12:00,56.0,45.0,29.92,West,261,0.0,-999.0,66,-99.99,,,-99.99,,2013-03-22 04:12:00,
2013-03-22 00:23:00,54.0,44.0,29.93,West,261,0.0,-999.0,69,-99.99,,,-99.99,,2013-03-22 04:23:00,
2013-03-22 00:32:00,54.0,44.0,29.93,West,261,0.0,-999.0,69,-99.99,,,-99.99,,2013-03-22 04:32:00,
2013-03-22 00:43:00,54.0,44.0,29.93,West,261,0.0,-999.0,69,-99.99,,,-99.99,,2013-03-22 04:43:00,
2013-03-22 00:52:00,54.0,45.0,29.92,West,261,0.0,-999.0,71,-99.99,,,-99.99,,2013-03-22 04:52:00,
2013-03-22 01:02:00,54.0,45.0,29.92,West,261,0.0,-999.0,71,-99.99,,,-99.99,,2013-03-22 05:02:00,
2013-03-22 01:12:00,54.0,45.0,29.92,West,261,0.0,-999.0,71,-99.99,,,-99.99,,2013-03-22 05:12:00,
2013-03-22 01:22:00,53.0,45.0,29.92,West,261,0.0,-999.0,74,-99.99,,,-99.99,,2013-03-22 05:22:00,
2013-03-22 01:32:00,53.0,45.0,29.92,West,261,0.0,-999.0,74,-99.99,,,-99.99,,2013-03-22 05:32:00,
2013-03-22 01:42:00,53.0,45.0,29.92,West,261,0.0,-999.0,74,-99.99,,,-99.99,,2013-03-22 05:42:00,
2013-03-22 01:52:00,52.0,45.0,29.92,West,261,0.0,-999.0,77,-99.99,,,-99.99,,2013-03-22 05:52:00,
2013-03-22 02:02:00,52.0,45.0,29.92,West,261,0.0,-999.0,77,-99.99,,,-99.99,,2013-03-22 06:02:00,
2013-03-22 02:13:00,52.0,45.0,29.92,West,261,0.0,-999.0,77,-99.99,,,-99.99,,2013-03-22 06:13:00,
2013-03-22 02:22:00,51.0,45.0,29.92,West,261,0.0,-999.0,80,-99.99,,,-99.99,,2013-03-22 06:22:00,
2013-03-22 02:32:00,51.0,45.0,29.92,West,261,0.0,-999.0,80,-99.99,,,-99.99,,2013-03-22 06:32:00,
2013-03-22 02:43:00,51.0,45.0,29.92,West,261,0.0,-999.0,80,-99.99,,,-99.99,,2013-03-22 06:43:00,
2013-03-22 02:52:00,50.0,45.0,29.91,West,261,0.0,-999.0,84,-99.99,,,-99.99,,2013-03-22 06:52:00,
2013-03-22 03:03:00,50.0,45.0,29.91,West,261,0.0,-999.0,84,-99.99,,,-99.99,,2013-03-22 07:03:00,
2013-03-22 03:12:00,50.0,45.0,29.91,West,261,0.0,-999.0,84,-99.99,,,-99.99,,2013-03-22 07:12:00,
2013-03-22 03:32:00,49.0,45.0,29.91,West,261,0.0,-999.0,86,-99.99,,,-99.99,,2013-03-22 07:32:00,
2013-03-22 03:42:00,49.0,45.0,29.91,West,261,0.0,-999.0,86,-99.99,,,-99.99,,2013-03-22 07:42:00,
2013-03-22 03:52:00,49.0,46.0,29.91,West,261,0.0,-999.0,89,-99.99,,,-99.99,,2013-03-22 07:52:00,
2013-03-22 04:03:00,49.0,46.0,29.91,West,261,0.0,-999.0,89,-99.99,,,-99.99,,2013-03-22 08:03:00,
2013-03-22 04:13:00,49.0,46.0,29.91,West,261,0.0,-999.0,89,-99.99,,,-99.99,,2013-03-22 08:13:00,
2013-03-22 04:22:00,48.0,45.0,29.90,West,261,0.0,-999.0,90,-99.99,,,-99.99,,2013-03-22 08:22:00,
2013-03-22 04:31:00,48.0,46.0,29.91,West,261,0.0,-999.0,92,-99.99,,,-99.99,,2013-03-22 08:31:00,
2013-03-22 04:32:00,48.0,45.0,29.90,West,261,0.0,-999.0,90,-99.99,,,-99.99,,2013-03-22 08:32:00,
2013-03-22 04:42:00,48.0,45.0,29.90,West,261,0.0,-999.0,90,-99.99,,,-99.99,,2013-03-22 08:42:00,
2013-03-22 04:52:00,48.0,46.0,29.91,West,261,0.0,-999.0,92,-99.99,,,-99.99,,2013-03-22 08:52:00,
2013-03-22 05:02:00,48.0,46.0,29.91,West,261,0.0,-999.0,92,-99.99,,,-99.99,,2013-03-22 09:02:00,
2013-03-22 05:12:00,48.0,46.0,29.91,West,261,0.0,-999.0,92,-99.99,,,-99.99,,2013-03-22 09:12:00,
2013-03-22 05:22:00,48.0,46.0,29.91,West,261,0.0,-999.0,92,-99.99,,,-99.99,,2013-03-22 09:22:00,
2013-03-22 08:52:00,51.0,46.0,29.99,NE,45,0.0,-999.0,84,-99.99,,,-99.99,,2013-03-22 12:52:00,
2013-03-22 09:02:00,51.0,46.0,29.99,NE,45,0.0,-999.0,84,-99.99,,,-99.99,,2013-03-22 13:02:00,
2013-03-22 09:12:00,51.0,46.0,29.99,NE,45,0.0,-999.0,84,-99.99,,,-99.99,,2013-03-22 13:12:00,
2013-03-22 09:22:00,54.0,48.0,30.00,ENE,61,1.0,-999.0,79,-99.99,,,-99.99,,2013-03-22 13:22:00,
2013-03-22 09:32:00,54.0,48.0,30.00,ENE,61,1.0,-999.0,79,-99.99,,,-99.99,,2013-03-22 13:32:00,
2013-03-22 09:42:00,54.0,48.0,30.00,ENE,61,1.0,-999.0,79,-99.99,,,-99.99,,2013-03-22 13:42:00,
2013-03-22 09:52:00,57.0,48.0,30.00,ESE,104,1.0,-999.0,72,-99.99,,,-99.99,,2013-03-22 13:52:00,
2013-03-22 10:02:00,57.0,48.0,30.00,ESE,104,1.0,-999.0,72,-99.99,,,-99.99,,2013-03-22 14:02:00,
2013-03-22 10:12:00,57.0,48.0,30.00,ESE,104,1.0,-999.0,72,-99.99,,,-99.99,,2013-03-22 14:12:00,
2013-03-22 10:22:00,61.0,47.0,30.00,ESE,106,2.0,-999.0,59,-99.99,,,-99.99,,2013-03-22 14:22:00,
2013-03-22 10:32:00,61.0,47.0,30.00,ESE,106,2.0,-999.0,59,-99.99,,,-99.99,,2013-03-22 14:32:00,
2013-03-22 10:43:00,61.0,47.0,30.00,ESE,106,2.0,-999.0,59,-99.99,,,-99.99,,2013-03-22 14:43:00,
2013-03-22 10:52:00,64.0,46.0,30.00,ENE,69,2.0,-999.0,52,-99.99,,,-99.99,,2013-03-22 14:52:00,
2013-03-22 11:01:00,66.0,46.0,30.00,NE,38,3.0,-999.0,49,-99.99,,,-99.99,,2013-03-22 15:01:00,
2013-03-22 11:03:00,64.0,46.0,30.00,ENE,69,2.0,-999.0,52,-99.99,,,-99.99,,2013-03-22 15:03:00,
2013-03-22 11:12:00,64.0,46.0,30.00,ENE,69,2.0,-999.0,52,-99.99,,,-99.99,,2013-03-22 15:12:00,
2013-03-22 11:22:00,66.0,46.0,30.00,NE,38,3.0,-999.0,49,-99.99,,,-99.99,,2013-03-22 15:22:00,
2013-03-22 11:33:00,66.0,46.0,30.00,NE,38,3.0,-999.0,49,-99.99,,,-99.99,,2013-03-22 15:33:00,
2013-03-22 11:43:00,66.0,46.0,30.00,NE,38,3.0,-999.0,49,-99.99,,,-99.99,,2013-03-22 15:43:00,
2013-03-22 11:53:00,66.0,46.0,30.00,NE,38,3.0,-999.0,49,-99.99,,,-99.99,,2013-03-22 15:53:00,
2013-03-22 15:52:00,77.0,52.0,29.90,SE,143,1.0,-999.0,42,-99.99,,,-99.99,,2013-03-22 19:52:00,
2013-03-22 16:02:00,77.0,52.0,29.90,SE,143,1.0,-999.0,42,-99.99,,,-99.99,,2013-03-22 20:02:00,
2013-03-22 16:13:00,77.0,52.0,29.90,SE,143,1.0,-999.0,42,-99.99,,,-99.99,,2013-03-22 20:13:00,
2013-03-22 16:22:00,77.0,52.0,29.89,SE,141,2.0,-999.0,42,-99.99,,,-99.99,,2013-03-22 20:22:00,
2013-03-22 16:32:00,77.0,52.0,29.89,SE,141,2.0,-999.0,42,-99.99,,,-99.99,,2013-03-22 20:32:00,
2013-03-22 16:43:00,77.0,52.0,29.89,SE,141,2.0,-999.0,42,-99.99,,,-99.99,,2013-03-22 20:43:00,
2013-03-22 16:52:00,77.0,52.0,29.88,WSW,237,1.0,-999.0,42,-99.99,,,-99.99,,2013-03-22 20:52:00,
2013-03-22 17:03:00,77.0,52.0,29.88,WSW,237,1.0,-999.0,42,-99.99,,,-99.99,,2013-03-22 21:03:00,
2013-03-22 17:12:00,76.0,53.0,29.88,ESE,116,0.0,-999.0,45,-99.99,,,-99.99,,2013-03-22 21:12:00,
2013-03-22 17:22:00,76.0,53.0,29.88,ESE,116,0.0,-999.0,45,-99.99,,,-99.99,,2013-03-22 21:22:00,
2013-03-22 17:33:00,76.0,53.0,29.88,ESE,116,0.0,-999.0,45,-99.99,,,-99.99,,2013-03-22 21:33:00,
2013-03-22 17:43:00,76.0,53.0,29.88,ESE,116,0.0,-999.0,45,-99.99,,,-99.99,,2013-03-22 21:43:00,
2013-03-22 17:53:00,74.0,52.0,29.88,ESE,104,2.0,-999.0,46,-99.99,,,-99.99,,2013-03-22 21:53:00,
2013-03-22 18:03:00,74.0,52.0,29.88,ESE,104,2.0,-999.0,46,-99.99,,,-99.99,,2013-03-22 22:03:00,
2013-03-22 18:12:00,74.0,52.0,29.88,ESE,104,2.0,-999.0,46,-99.99,,,-99.99,,2013-03-22 22:12:00,
2013-03-22 18:23:00,71.0,56.0,29.90,SE,140,1.0,-999.0,60,-99.99,,,-99.99,,2013-03-22 22:23:00,
2013-03-22 18:32:00,71.0,56.0,29.90,SE,140,1.0,-999.0,60,-99.99,,,-99.99,,2013-03-22 22:32:00,
2013-03-22 18:43:00,71.0,56.0,29.90,SE,140,1.0,-999.0,60,-99.99,,,-99.99,,2013-03-22 22:43:00,
2013-03-22 18:53:00,66.0,59.0,29.92,East,83,0.0,-999.0,79,-99.99,,,-99.99,,2013-03-22 22:53:00,
2013-03-22 19:02:00,66.0,59.0,29.92,East,83,0.0,-999.0,79,-99.99,,,-99.99,,2013-03-22 23:02:00,
2013-03-22 19:12:00,66.0,59.0,29.92,East,83,0.0,-999.0,79,-99.99,,,-99.99,,2013-03-22 23:12:00,
2013-03-22 19:22:00,65.0,59.0,29.92,NE,56,0.0,-999.0,82,-99.99,,,-99.99,,2013-03-22 23:22:00,
2013-03-22 19:32:00,65.0,59.0,29.92,NE,56,0.0,-999.0,82,-99.99,,,-99.99,,2013-03-22 23:32:00,
2013-03-22 19:42:00,65.0,59.0,29.92,NE,56,0.0,-999.0,82,-99.99,,,-99.99,,2013-03-22 23:42:00,
2013-03-22 19:52:00,64.0,60.0,29.94,NE,44,0.0,-999.0,88,-99.99,,,-99.99,,2013-03-22 23:52:00,
2013-03-22 20:02:00,64.0,60.0,29.94,NE,44,0.0,-999.0,88,-99.99,,,-99.99,,2013-03-23 00:02:00,
2013-03-22 20:12:00,64.0,60.0,29.94,NE,44,0.0,-999.0,88,-99.99,,,-99.99,,2013-03-23 00:12:00,
2013-03-22 20:23:00,63.0,60.0,29.93,NE,45,0.0,-999.0,91,-99.99,,,-99.99,,2013-03-23 00:23:00,
2013-03-22 20:33:00,63.0,60.0,29.93,NE,45,0.0,-999.0,91,-99.99,,,-99.99,,2013-03-23 00:33:00,
2013-03-22 20:42:00,63.0,61.0,29.94,NE,47,0.0,-999.0,92,-99.99,,,-99.99,,2013-03-23 00:42:00,
2013-03-22 20:52:00,63.0,61.0,29.94,NE,47,0.0,-999.0,92,-99.99,,,-99.99,,2013-03-23 00:52:00,
2013-03-22 21:03:00,63.0,61.0,29.94,NE,47,0.0,-999.0,92,-99.99,,,-99.99,,2013-03-23 01:03:00,
2013-03-22 21:12:00,63.0,61.0,29.94,NE,47,0.0,-999.0,92,-99.99,,,-99.99,,2013-03-23 01:12:00,
2013-03-22 21:22:00,62.0,60.0,29.95,NE,47,0.0,-999.0,92,-99.99,,,-99.99,,2013-03-23 01:22:00,
2013-03-22 21:32:00,62.0,60.0,29.95,NE,47,0.0,-999.0,92,-99.99,,,-99.99,,2013-03-23 01:32:00,
2013-03-22 21:43:00,62.0,60.0,29.95,NE,47,0.0,-999.0,92,-99.99,,,-99.99,,2013-03-23 01:43:00,
2013-03-22 21:52:00,62.0,59.0,29.96,NE,47,0.0,-999.0,91,-99.99,,,-99.99,,2013-03-23 01:52:00,
2013-03-22 22:01:00,63.0,61.0,29.97,ENE,68,0.0,-999.0,92,-99.99,,,-99.99,,2013-03-23 02:01:00,
2013-03-22 22:02:00,62.0,59.0,29.96,NE,47,0.0,-999.0,91,-99.99,,,-99.99,,2013-03-23 02:02:00,
2013-03-22 22:12:00,62.0,59.0,29.96,NE,47,0.0,-999.0,91,-99.99,,,-99.99,,2013-03-23 02:12:00,
2013-03-22 22:22:00,63.0,61.0,29.97,ENE,68,0.0,-999.0,92,-99.99,,,-99.99,,2013-03-23 02:22:00,
2013-03-22 22:32:00,63.0,61.0,29.97,ENE,68,0.0,-999.0,92,-99.99,,,-99.99,,2013-03-23 02:32:00,
2013-03-22 22:42:00,63.0,61.0,29.97,ENE,68,0.0,-999.0,92,-99.99,,,-99.99,,2013-03-23 02:42:00,
2013-03-22 22:52:00,63.0,61.0,29.97,ENE,68,0.0,-999.0,92,-99.99,,,-99.99,,2013-03-23 02:52:00,